GW1775 Weather Reports


Display with metric or nautical units.
time (UTC)temp
F
wind
direction
speed
MPH
gust
MPH
rain 1hr
in
rain 24hr
in
rain mn
in
humidity
%
barometer
mb
20260502195021 60 262 3.0 3.0 0.00 0.00 0.00 32 1016.8
20260502194518 60 268 8.0 10.0 0.00 0.00 0.00 30 1017.1
20260502194014 60 276 5.0 6.0 0.00 0.00 0.00 30 1017.2
20260502193512 60 241 5.0 7.0 0.00 0.00 0.00 31 1016.9
20260502193009 59 275 3.0 3.0 0.00 0.00 0.00 30 1017.2
20260502192505 59 282 5.0 6.0 0.00 0.00 0.00 30 1017.0
20260502192003 59 248 4.0 5.0 0.00 0.00 0.00 31 1017.4
20260502191500 60 234 6.0 7.0 0.00 0.00 0.00 30 1017.5
20260502190957 59 279 4.0 5.0 0.00 0.00 0.00 32 1017.3
20260502190454 60 253 9.0 10.0 0.00 0.00 0.00 30 1017.9
20260502185950 60 173 4.0 6.0 0.00 0.00 0.00 33 1017.7
20260502185445 60 261 5.0 6.0 0.00 0.00 0.00 30 1017.7
20260502184942 59 272 3.0 3.0 0.00 0.00 0.00 32 1018.1
20260502184438 59 253 7.0 7.0 0.00 0.00 0.00 31 1018.0
20260502183934 58 227 4.0 6.0 0.00 0.00 0.00 32 1017.8
20260502183431 59 218 8.0 9.0 0.00 0.00 0.00 32 1018.1
20260502182926 58 203 3.0 5.0 0.00 0.00 0.00 36 1017.9
20260502182422 58 311 5.0 6.0 0.00 0.00 0.00 32 1018.1
20260502181918 58 177 2.0 3.0 0.00 0.00 0.00 36 1018.4
20260502181417 58 188 4.0 6.0 0.00 0.00 0.00 31 1018.2
20260502180915 59 277 4.0 5.0 0.00 0.00 0.00 33 1018.5
20260502180412 58 226 6.0 8.0 0.00 0.00 0.00 35 1018.4
20260502170330 56 268 5.0 7.0 0.00 0.00 0.00 33 1019.1
20260502164318 56 6 3.0 3.0 0.00 0.00 0.00 32 1019.2
20260502163814 56 236 6.0 9.0 0.00 0.00 0.00 33 1019.4
20260502163310 56 275 4.0 5.0 0.00 0.00 0.00 33 1019.4
20260502162808 56 240 5.0 6.0 0.00 0.00 0.00 35 1019.1
20260502162305 56 326 3.0 6.0 0.00 0.00 0.00 34 1019.5
20260502161801 56 193 2.0 2.0 0.00 0.00 0.00 35 1019.4
20260502161257 55 225 3.0 3.0 0.00 0.00 0.00 36 1019.7
20260502160755 55 275 3.0 3.0 0.00 0.00 0.00 33 1019.7
20260502160254 55 244 2.0 2.0 0.00 0.00 0.00 35 1019.6
20260502152223 53 261 6.0 8.0 0.00 0.00 0.00 37 1019.8
20260502151721 53 320 2.0 2.0 0.00 0.00 0.00 40 1020.0
20260502151218 53 283 5.0 6.0 0.00 0.00 0.00 37 1020.0
20260502150715 53 297 5.0 6.0 0.00 0.00 0.00 40 1020.2
20260502150212 53 271 8.0 10.0 0.00 0.00 0.00 38 1020.0
20260502130601 44 286 4.0 5.0 0.00 0.00 0.00 63 1020.5
20260502123544 38 113 1.0 1.0 0.00 0.00 0.00 97 1020.5
20260502123040 37 150 0.0 0.0 0.00 0.00 0.00 97 1020.4
20260502122537 35 148 0.0 0.0 0.00 0.00 0.00 96 1020.3
20260502122034 33 149 0.0 0.0 0.00 0.00 0.00 96 1020.0
20260502121532 31 201 0.0 0.0 0.00 0.00 0.00 96 1020.4
20260502121029 31 176 0.0 0.0 0.00 0.00 0.00 95 1020.0
20260502120525 30 182 0.0 0.0 0.00 0.00 0.00 95 1020.0
20260502115520 29 182 0.0 0.0 0.00 0.00 0.00 95 1019.9
20260502115015 29 182 0.0 0.0 0.00 0.00 0.00 95 1019.9
20260502114513 29 175 0.0 0.0 0.00 0.00 0.00 95 1020.0
20260502114009 29 198 0.0 0.0 0.00 0.00 0.00 95 1019.9
20260502113507 29 182 0.0 0.0 0.00 0.00 0.00 95 1019.7
20260502113006 29 182 0.0 0.0 0.00 0.00 0.00 95 1019.8
20260502112503 29 211 0.0 0.0 0.00 0.00 0.00 95 1019.8
20260502112000 29 151 0.0 1.0 0.00 0.00 0.00 95 1019.7
20260502111457 28 182 0.0 0.0 0.00 0.00 0.00 94 1019.9
20260502110955 29 182 0.0 0.0 0.00 0.00 0.00 94 1019.7
20260502110452 29 185 0.0 0.0 0.00 0.00 0.00 94 1019.6
20260502105949 29 192 0.0 0.0 0.00 0.00 0.00 94 1019.6
20260502105447 29 190 0.0 0.0 0.00 0.00 0.00 94 1019.9
20260502104944 29 182 0.0 0.0 0.00 0.00 0.00 94 1019.7
20260502104441 29 182 0.0 0.0 0.00 0.00 0.00 94 1019.8
20260502103938 29 164 0.0 0.0 0.00 0.00 0.00 94 1019.8
20260502103436 29 146 0.0 0.0 0.00 0.00 0.00 94 1019.8
20260502102933 29 143 0.0 1.0 0.00 0.00 0.00 94 1019.8
20260502102430 29 161 0.0 0.0 0.00 0.00 0.00 93 1019.5
20260502101927 29 198 0.0 0.0 0.00 0.00 0.00 93 1019.6
20260502101425 29 198 0.0 0.0 0.00 0.00 0.00 93 1019.4
20260502100923 29 205 0.0 0.0 0.00 0.00 0.00 93 1019.7
20260502100422 29 223 0.0 0.0 0.00 0.00 0.00 93 1019.9
20260502091355 30 218 0.0 0.0 0.00 0.00 0.00 91 1019.7
20260502090853 31 158 0.0 0.0 0.00 0.00 0.00 91 1019.5
20260502090350 31 197 0.0 0.0 0.00 0.00 0.00 91 1019.6
20260502071245 31 172 0.0 0.0 0.00 0.00 0.00 84 1019.4
20260502070743 31 204 0.0 0.0 0.00 0.00 0.00 84 1019.7
20260502070240 31 204 0.0 0.0 0.00 0.00 0.00 83 1019.7
20260502065739 31 205 0.0 0.0 0.00 0.00 0.00 82 1019.6
20260502065236 32 206 0.0 0.0 0.00 0.00 0.00 82 1019.5
20260502064735 32 181 0.0 0.0 0.00 0.00 0.00 82 1019.7
20260502064232 32 170 0.0 0.0 0.00 0.00 0.00 82 1019.7
20260502063729 32 234 0.0 0.0 0.00 0.00 0.00 79 1019.7
20260502063227 33 204 0.0 0.0 0.00 0.00 0.00 79 1019.5
20260502062724 33 168 0.0 0.0 0.00 0.00 0.00 80 1019.7
20260502062222 33 241 0.0 0.0 0.00 0.00 0.00 78 1019.7
20260502061720 34 238 0.0 0.0 0.00 0.00 0.00 77 1019.8
20260502061217 34 238 0.0 0.0 0.00 0.00 0.00 77 1019.7
20260502060712 34 293 0.0 0.0 0.00 0.00 0.00 77 1019.8
20260502060209 35 199 0.0 0.0 0.00 0.00 0.00 77 1019.5
20260502055707 35 209 0.0 0.0 0.00 0.00 0.00 76 1019.7
20260502055204 35 185 0.0 0.0 0.00 0.00 0.00 75 1019.8
20260502054703 36 237 0.0 0.0 0.00 0.00 0.00 74 1019.5
20260502054200 35 268 0.0 1.0 0.00 0.00 0.00 74 1019.6
20260502053658 36 182 0.0 0.0 0.00 0.00 0.00 74 1019.4
20260502053154 36 230 0.0 0.0 0.00 0.00 0.00 73 1019.7
20260502052653 36 230 0.0 0.0 0.00 0.00 0.00 73 1019.6
20260502052151 36 225 0.0 0.0 0.00 0.00 0.00 72 1019.3
20260502051648 37 224 0.0 0.0 0.00 0.00 0.00 71 1019.6
20260502051146 37 206 0.0 0.0 0.00 0.00 0.00 71 1019.6
20260502050642 37 211 0.0 0.0 0.00 0.00 0.00 71 1019.5
20260502050139 37 217 0.0 0.0 0.00 0.00 0.00 71 1019.5
20260502045636 36 217 0.0 0.0 0.00 0.00 0.00 70 1019.4
20260502045133 36 210 0.0 0.0 0.00 0.00 0.00 71 1019.4
20260502044629 36 210 0.0 0.0 0.00 0.00 0.00 68 1019.4
20260502044126 37 197 0.0 0.0 0.00 0.00 0.00 67 1019.3
20260502043624 37 197 0.0 0.0 0.00 0.00 0.00 64 1019.2
20260502043121 38 197 0.0 0.0 0.00 0.00 0.00 64 1019.4
20260502042621 38 197 0.0 0.0 0.00 0.00 0.00 66 1019.1
20260502042118 38 190 0.0 0.0 0.00 0.00 0.00 66 1019.2
20260502041616 38 253 0.0 0.0 0.00 0.00 0.00 68 1019.1
20260502041113 38 223 0.0 0.0 0.00 0.00 0.00 63 1019.3
20260502040609 38 206 0.0 0.0 0.00 0.00 0.00 63 1019.2
20260502040107 38 198 0.0 0.0 0.00 0.00 0.00 64 1019.1
20260502035603 38 181 0.0 0.0 0.00 0.00 0.00 65 1019.3
20260502035100 38 182 0.0 0.0 0.00 0.00 0.00 66 1019.0
20260502034557 38 224 0.0 0.0 0.00 0.00 0.00 65 1019.3
20260502034056 39 207 0.0 0.0 0.00 0.00 0.00 64 1019.2
20260502033554 39 196 0.0 0.0 0.00 0.00 0.00 64 1019.1
20260502033051 39 195 0.0 0.0 0.00 0.00 0.00 65 1019.3
20260502032547 39 244 0.0 0.0 0.00 0.00 0.00 63 1019.3
20260502032043 39 249 0.0 0.0 0.00 0.00 0.00 64 1019.2
20260502031541 40 243 0.0 0.0 0.00 0.00 0.00 62 1019.1
20260502031039 40 236 0.0 0.0 0.00 0.00 0.00 62 1019.2
20260502030538 41 255 0.0 0.0 0.00 0.00 0.00 62 1019.2
20260502030035 40 278 0.0 0.0 0.00 0.00 0.00 64 1018.8
20260502025532 38 316 1.0 1.0 0.00 0.00 0.00 64 1019.1
20260502025030 38 136 0.0 0.0 0.00 0.00 0.00 63 1019.0
20260502024527 38 136 0.0 0.0 0.00 0.00 0.00 64 1018.7
20260502024026 38 136 0.0 0.0 0.00 0.00 0.00 63 1018.7
20260502023523 38 136 0.0 0.0 0.00 0.00 0.00 61 1019.1
20260502023020 39 135 0.0 0.0 0.00 0.00 0.00 59 1018.9
20260502022517 39 136 0.0 0.0 0.00 0.00 0.00 58 1018.8
20260502022014 40 135 0.0 0.0 0.00 0.00 0.00 57 1018.6
20260502021512 41 135 0.0 0.0 0.00 0.00 0.00 56 1018.6
20260502021008 42 134 0.0 0.0 0.00 0.00 0.00 55 1018.5
20260502020506 43 138 0.0 0.0 0.00 0.00 0.00 52 1018.4
20260502020003 44 125 0.0 0.0 0.00 0.00 0.00 51 1018.4
20260502015501 44 99 0.0 1.0 0.00 0.00 0.00 50 1018.4
20260502014956 44 152 0.0 0.0 0.00 0.00 0.00 51 1018.3
20260502014454 44 147 0.0 0.0 0.00 0.00 0.00 50 1018.2
20260502013950 45 147 0.0 0.0 0.00 0.00 0.00 48 1018.1
20260502013446 45 132 0.0 0.0 0.00 0.00 0.00 46 1018.2
20260502012942 46 108 0.0 0.0 0.00 0.00 0.00 46 1018.1
20260502012440 47 119 0.0 0.0 0.00 0.00 0.00 45 1018.2
20260502011938 48 77 0.0 0.0 0.00 0.00 0.00 44 1018.0
20260502011433 48 182 0.0 1.0 0.00 0.00 0.00 42 1018.0
20260502010931 49 56 2.0 3.0 0.00 0.00 0.00 40 1018.0
20260502010427 50 352 4.0 5.0 0.00 0.00 0.00 39 1017.9
20260502005923 50 346 5.0 7.0 0.00 0.00 0.00 38 1017.8
20260502005421 50 10 3.0 5.0 0.00 0.00 0.00 39 1017.6
20260502004920 50 341 2.0 3.0 0.00 0.00 0.00 39 1017.7
20260502004415 51 349 3.0 5.0 0.00 0.00 0.00 38 1017.8
20260502003912 51 338 5.0 6.0 0.00 0.00 0.00 38 1017.6
20260502003410 51 313 4.0 5.0 0.00 0.00 0.00 37 1017.4
20260502002905 52 276 1.0 2.0 0.00 0.00 0.00 37 1017.6
20260502002404 53 313 3.0 5.0 0.00 0.00 0.00 35 1017.3
20260502001901 53 351 2.0 3.0 0.00 0.00 0.00 36 1017.4
20260502001358 54 347 3.0 5.0 0.00 0.00 0.00 35 1017.4
20260502000855 54 281 1.0 1.0 0.00 0.00 0.00 35 1017.4
20260502000354 54 252 1.0 1.0 0.00 0.00 0.00 37 1017.4
20260501235849 53 70 2.0 2.0 0.00 0.00 0.00 36 1017.3
20260501235345 53 5 3.0 3.0 0.00 0.00 0.00 36 1017.2
20260501234840 53 78 1.0 2.0 0.00 0.00 0.00 35 1017.2
20260501234338 54 349 3.0 3.0 0.00 0.00 0.00 34 1017.2
20260501233836 55 93 3.0 5.0 0.00 0.00 0.00 35 1017.4
20260501233333 55 351 4.0 6.0 0.00 0.00 0.00 36 1017.3
20260501232829 54 27 2.0 2.0 0.00 0.00 0.00 35 1017.3
20260501232326 53 327 5.0 8.0 0.00 0.00 0.00 34 1017.2
20260501231824 53 75 2.0 3.0 0.00 0.00 0.00 38 1017.4
20260501231321 54 312 4.0 6.0 0.00 0.00 0.00 35 1017.2
20260501230820 54 62 1.0 1.0 0.00 0.00 0.00 40 1017.4
20260501230319 52 316 4.0 6.0 0.00 0.00 0.00 37 1017.5
20260501225816 52 335 7.0 10.0 0.00 0.00 0.00 38 1017.4
20260501225313 53 307 6.0 8.0 0.00 0.00 0.00 38 1017.2
20260501224809 53 294 5.0 6.0 0.00 0.00 0.00 37 1017.4
20260501224307 54 318 6.0 8.0 0.00 0.00 0.00 37 1017.3
20260501223803 56 330 8.0 8.0 0.00 0.00 0.00 34 1017.2
20260501223259 56 313 7.0 10.0 0.00 0.00 0.00 34 1017.4
20260501222755 55 282 1.0 2.0 0.00 0.00 0.00 41 1017.1
20260501222252 54 359 2.0 3.0 0.00 0.00 0.00 39 1017.3
20260501221749 55 61 3.0 3.0 0.00 0.00 0.00 39 1017.3
20260501221246 55 103 2.0 3.0 0.00 0.00 0.00 40 1017.3
20260501220744 55 60 2.0 2.0 0.00 0.00 0.00 39 1017.3
20260501220241 54 293 4.0 5.0 0.00 0.00 0.00 38 1017.0
20260501215738 54 254 4.0 5.0 0.00 0.00 0.00 36 1017.2
20260501215233 53 317 4.0 6.0 0.00 0.00 0.00 38 1017.1
20260501214729 54 51 1.0 2.0 0.00 0.00 0.00 39 1017.2
20260501214225 54 66 3.0 5.0 0.00 0.00 0.00 38 1017.1
20260501213721 54 253 2.0 3.0 0.00 0.00 0.00 38 1017.2
20260501213217 54 292 7.0 8.0 0.00 0.00 0.00 36 1017.2
20260501212714 54 339 4.0 5.0 0.00 0.00 0.00 38 1017.2
20260501212210 55 313 11.0 14.0 0.00 0.00 0.00 35 1017.1
20260501211707 55 277 5.0 7.0 0.00 0.00 0.00 35 1017.0
20260501211204 54 284 7.0 8.0 0.00 0.00 0.00 35 1017.2
20260501210702 55 251 6.0 7.0 0.00 0.00 0.00 36 1017.0
20260501210158 57 334 6.0 7.0 0.00 0.00 0.00 34 1017.3
20260501205654 55 342 6.0 8.0 0.00 0.00 0.00 37 1017.3
20260501205152 54 285 5.0 6.0 0.00 0.00 0.00 39 1017.1
20260501204648 54 313 3.0 3.0 0.00 0.00 0.00 39 1017.2
20260501204144 55 332 5.0 6.0 0.00 0.00 0.00 36 1017.2
20260501203641 55 307 3.0 3.0 0.00 0.00 0.00 37 1017.3
20260501203139 53 69 3.0 3.0 0.00 0.00 0.00 42 1017.3
20260501202635 53 321 6.0 7.0 0.00 0.00 0.00 39 1017.3
20260501202132 54 269 3.0 3.0 0.00 0.00 0.00 37 1017.5
20260501201629 54 338 1.0 2.0 0.00 0.00 0.00 41 1017.4
20260501201125 55 279 2.0 2.0 0.00 0.00 0.00 37 1017.3
20260501200623 55 288 2.0 2.0 0.00 0.00 0.00 44 1017.4
20260501200120 53 28 1.0 2.0 0.00 0.00 0.00 44 1017.3
20260501195618 53 316 6.0 7.0 0.00 0.00 0.00 41 1017.2